Regional Weather Roundup
Issued by NWS Little Rock, AR

Home | Current Version | Previous Version | Graphics & Text | Print | Product List | Glossary On
Versions: 1 2 3 4 5 6 7 8 9 10 11 12 13 14 15 16 17 18 19 20 21 22 23 24 25 26 27 28 29 30 31 32
000
ASUS44 KLZK 221105
RWRLZK

WEATHER ROUNDUP FOR ARKANSAS
NATIONAL WEATHER SERVICE LITTLE ROCK AR
600 AM CDT SUN OCT 22 2017

NOTE: "FAIR" INDICATES FEW OR NO CLOUDS BELOW 12,000 FEET WITH NO
SIGNIFICANT WEATHER AND/OR OBSTRUCTIONS TO VISIBILITY.

ARZ001-003-010-029-221200-
NORTHWEST ARKANSAS

CITY           SKY/WX    TMP DP  RH WIND       PRES   REMARKS
FAYETTEVILLE   LGT RAIN  57  57 100 CALM      30.00R FOG
FORT SMITH     RAIN      59  58  96 W12       30.01R
HARRISON       LGT RAIN  57  57 100 S3        29.97R
BENTONVILLE    RAIN      57  56  96 CALM      30.01R
ROGERS         LGT RAIN  56  56 100 W3        30.00R
SILOAM SPGS    LGT RAIN  57  56  96 W5        30.02R
HIGHFILL       RAIN      57  57 100 N3        29.99F
SPRINGDALE     LGT RAIN  57  57 100 CALM      30.01  FOG
$$

ARZ004-005-016-221200-
NORTH CENTRAL ARKANSAS

CITY           SKY/WX    TMP DP  RH WIND       PRES   REMARKS
BATESVILLE     RAIN      60  59  96 CALM      29.97F FOG
FLIPPIN        LGT RAIN  59  59 100 CALM      29.97F
MTN HOME       LGT RAIN  58  58 100 CALM      29.96F
$$

ARZ040-041-221200-
WEST CENTRAL ARKANSAS

CITY           SKY/WX    TMP DP  RH WIND       PRES   REMARKS
MENA           CLOUDY    59  59 100 CALM      30.04S
$$

ARZ009-017-025-026-028-221200-
NORTHEAST ARKANSAS

CITY           SKY/WX    TMP DP  RH WIND       PRES   REMARKS
CORNING        CLOUDY    66  66 100 SW21G29   29.92R FOG
JONESBORO      CLOUDY    71  67  87 S10       29.95S
NEWPORT        RAIN      59  58  96 NW10      30.01R
WALNUT RIDGE   LGT RAIN  61  59  93 SW12      29.98R
BLYTHEVILLE    CLOUDY    71  64  78 S12       29.99S
$$

ARZ022-023-033-042-044-221200-
CENTRAL ARKANSAS

CITY           SKY/WX    TMP DP  RH WIND       PRES   REMARKS
LITTLE ROCK    LGT RAIN  59  59 100 W7        30.00R
N LITTLE ROCK    N/A     58  57  94 CALM      30.00R
JACKSONVILLE   CLOUDY    60  59  96 W3        29.97F
SEARCY         CLOUDY    61  60  97 N10G21    29.96
HOT SPRINGS    LGT RAIN  60  60 100 CALM      30.02R
RUSSELLVILLE   RAIN      58  58 100 VRB3      29.99R
CLINTON        MOCLDY    61  59  94 CALM      29.97F
$$

ARZ036-221200-
EAST ARKANSAS

CITY           SKY/WX    TMP DP  RH WIND       PRES   REMARKS
WEST MEMPHIS   CLEAR     68  66  93 S8        29.99S
$$

ARZ050-053-066-070-073-221200-
SOUTHWEST ARKANSAS

CITY           SKY/WX    TMP DP  RH WIND       PRES   REMARKS
ARKADELPHIA    LGT RAIN  59  58  96 SW3       30.05R
CAMDEN         RAIN      59  55  88 CALM      30.04F
TEXARKANA      LGT RAIN  59  59 100 NW7       30.10R
EL DORADO      RAIN      60  60 100 N12       30.09R FOG
DE QUEEN       HVY RAIN  60  60 100 S8        30.06R FOG
$$

ARZ056-057-069-221200-
SOUTHEAST ARKANSAS

CITY           SKY/WX    TMP DP  RH WIND       PRES   REMARKS
PINE BLUFF     CLOUDY    60  59  96 NW12      30.02R
STUTTGART      TSTM      60  59  96 N7        30.01R FOG
MONTICELLO     CLOUDY    71  69  93 W6        30.01R

$$






USA.gov is the U.S. government's official web portal to all federal, state and local government web resources and services.